Dewpoint
26 27 27 27 27 28 27 27 25 22 21 22 22 22 24 26 27 31 31 32 32 30 29 32 33 34 35 35 35 36 36 36 37 38 40 39 41 46
25 25 25 25 26 27 27 26 27 26 23 24 25 26 27 27 27 29 28 31 33 30 29 30 31 32 33 34 34 35 35 35 35 36 37 40 39 40
23 25 26 27 27 26 26 26 26 27 25 25 26 27 28 27 27 27 27 27 28 32 30 29 31 31 31 32 33 34 33 34 34 35 36 37 39 40
25 25 25 25 24 24 24 23 23 25 26 24 25 25 26 27 27 27 27 26 27 28 30 29 30 30 31 31 33 32 32 33 34 33 35 35 36 38
23 23 23 23 23 24 24 24 25 25 26 26 27 28 28 28 28 28 28 28 28 29 30 28 28 29 28 28 30 31 32 33 32 31 33 34 34 35
24 24 23 22 24 27 26 25 26 26 26 27 28 27 28 28 29 28 27 28 28 28 28 30 30 29 28 28 29 31 30 29 29 30 31 32 33 34
24 23 23 25 28 25 24 25 25 25 26 26 26 26 26 26 26 27 28 28 29 30 29 29 30 28 27 30 30 30 29 29 29 29 29 28 30 34
25 25 25 25 25 27 27 26 27 27 27 27 27 26 26 26 26 26 27 27 25 28 29 29 31 28 26 28 31 31 31 32 28 27 29 28 30 32
26 25 25 25 27 26 28 28 29 30 29 29 28 27 27 28 27 27 26 26 26 27 28 27 27 27 28 30 31 32 32 28 27 27 29 29 32 33
26 25 25 25 26 27 27 27 28 29 29 29 28 29 30 31 33 32 32 31 29 30 30 28 28 27 29 30 32 31 28 26 26 28 29 33 30 30
26 25 25 26 26 26 28 29 29 29 32 27 30 29 29 27 29 30 27 27 27 28 29 29 28 26 25 25 25 27 27 29 28 30 30 29 27 30
23 22 26 25 26 31 30 26 25 28 31 30 29 29 28 29 30 30 29 26 26 25 30 28 26 24 22 24 25 26 25 25 25 28 29 27 27 31
24 25 25 26 28 24 25 24 24 23 24 26 25 25 26 26 27 27 30 29 26 25 27 27 26 26 26 24 24 24 25 24 25 27 28 28 28 27
25 25 26 27 24 23 21 21 21 21 22 23 23 24 23 24 25 25 25 26 26 26 26 26 24 24 23 22 21 23 23 24 25 26 27 28 29 28
26 27 27 24 21 21 21 21 21 23 23 24 22 22 23 24 25 23 23 24 24 24 25 25 25 24 24 23 22 23 24 26 27 27 26 27 27 29
29 28 22 21 21 22 22 22 22 22 22 21 22 22 22 23 23 24 23 24 24 23 24 25 26 27 25 26 25 24 26 26 27 27 29 29 30 29
25 21 21 21 21 22 21 21 22 22 22 22 23 23 23 23 22 23 23 23 22 22 23 24 26 28 29 29 26 27 27 27 28 29 29 27 26 28
19 19 20 21 21 21 21 21 21 22 22 23 23 23 22 22 22 23 22 22 22 22 23 24 26 26 27 28 31 28 29 28 28 29 30 27 26 29
19 19 20 21 21 21 22 21 21 22 23 23 22 22 22 21 22 21 21 22 22 23 24 25 25 24 22 22 27 32 28 27 27 27 27 27 26 27
20 21 21 21 21 22 22 22 22 22 22 23 22 22 22 21 21 21 22 22 22 23 25 26 26 25 24 22 23 27 30 26 26 25 24 24 25 24
21 21 21 22 22 22 22 23 23 23 24 23 22 23 22 22 21 22 22 24 25 24 24 23 26 29 27 25 21 23 25 29 29 25 24 23 21 22
21 21 22 22 22 23 23 23 22 22 22 23 23 23 23 23 22 22 23 23 23 25 24 24 26 24 22 20 19 18 19 22 22 25 27 27 22 19
22 22 22 23 23 23 23 22 22 22 23 23 24 24 24 23 24 24 24 24 23 24 23 23 22 22 23 21 19 18 18 20 21 19 19 23 25 28
Wind_Speed
1 2 3 5 6 7 8 8 10 16 19 5 6 6 12 16 16 15 17 18 18 20 21 20 20 20 18 17 16 17 16 16 15 15 15 15 14 16
3 5 6 8 10 10 10 11 10 15 21 9 12 12 15 14 17 17 17 17 18 22 24 22 22 20 18 17 17 17 16 16 17 14 14 15 16 13
6 7 11 10 12 12 10 10 13 12 19 23 15 12 13 15 17 18 17 17 16 17 22 25 23 20 18 17 17 17 16 16 16 15 13 13 14 16
9 10 13 11 15 14 13 14 12 11 11 20 18 15 15 15 18 20 18 16 15 18 22 25 24 21 19 15 15 15 15 15 15 15 14 12 13 13
11 13 15 16 17 13 11 11 10 10 10 13 21 16 16 11 16 15 16 14 15 19 20 22 21 16 11 14 16 16 13 11 12 14 15 14 13 12
12 13 14 14 12 12 12 11 9 13 13 14 15 17 15 15 12 16 17 12 16 14 17 16 16 16 11 14 11 9 10 14 14 15 13 12 12 10
13 13 12 14 15 14 12 13 13 11 13 14 15 14 16 16 16 15 15 16 15 12 12 10 10 11 4 5 7 12 16 18 16 15 14 16 14 13
14 14 14 14 14 16 17 17 18 14 14 14 15 16 17 15 16 15 15 15 16 8 12 15 8 13 11 9 11 15 16 16 14 18 17 17 15 15
13 14 12 12 16 16 17 18 8 16 18 18 18 18 19 19 18 18 16 16 17 16 10 17 8 15 12 11 15 14 14 16 21 20 17 17 14 13
12 12 14 15 16 19 16 12 12 14 15 13 15 16 15 18 14 15 16 14 14 13 11 17 8 14 10 10 12 14 18 19 19 19 17 9 9 13
11 11 13 15 18 23 19 17 16 16 13 18 17 19 19 19 16 13 12 13 14 10 8 13 7 4 4 9 13 16 12 12 16 14 7 7 10 13
9 12 14 18 22 23 19 18 18 17 13 12 11 13 15 13 13 11 11 10 10 7 3 7 3 4 6 4 6 6 10 14 15 13 12 13 13 6
11 11 11 20 23 24 22 13 17 19 14 12 13 12 12 11 11 11 9 7 10 8 8 8 4 6 5 9 11 13 11 15 14 13 15 15 14 11
12 12 13 22 21 20 17 20 19 17 13 13 12 12 13 13 13 12 12 12 10 12 12 11 9 11 13 14 12 7 9 12 11 13 12 12 13 14
12 16 19 17 17 14 16 18 17 12 12 10 12 11 12 13 14 13 12 13 13 13 12 11 11 14 12 13 12 12 10 5 8 10 9 9 11 6
11 9 14 14 15 14 13 13 11 11 13 13 12 13 12 11 13 11 14 13 13 14 10 11 11 11 12 13 14 17 12 7 3 4 4 3 5 6
9 10 10 11 12 11 12 12 11 11 12 12 13 13 13 13 14 12 13 13 10 12 15 12 10 12 13 16 14 13 12 10 10 10 4 6 6 7
11 11 11 11 12 12 13 14 13 14 12 14 13 13 13 13 14 13 12 12 13 14 14 13 12 9 4 7 15 12 6 5 6 6 3 3 4 4
9 11 11 11 13 12 12 13 15 14 13 13 14 14 13 13 14 15 14 12 13 13 14 13 10 7 8 6 3 7 4 0 3 0 1 1 2 2
10 10 12 12 13 13 13 13 14 14 13 13 12 13 13 13 14 13 13 14 14 13 11 7 7 7 4 3 3 3 6 4 4 3 3 3 5 9
11 11 11 11 12 13 13 13 13 13 14 14 13 13 13 12 13 12 13 15 14 11 8 7 7 9 5 3 4 4 6 3 3 5 4 5 4 3
10 11 12 12 12 12 13 12 13 13 13 13 13 13 14 12 12 13 12 13 12 9 6 6 5 6 4 3 4 6 6 4 6 4 7 7 4 3
10 11 12 12 12 11 12 12 12 13 13 13 13 13 13 13 12 11 11 9 10 7 7 7 7 4 3 2 5 5 7 6 5 8 8 4 5 7
Wind_Direction
255 282 290 295 291 283 274 269 277 301 299 275 279 284 309 313 300 293 289 282 276 291 301 299 299 299 296 297 297 298 302 306 307 307 312 315 309 316
296 303 302 293 291 281 277 282 268 269 287 289 286 274 284 286 292 294 290 287 284 291 296 298 296 292 290 292 296 296 299 302 302 305 307 307 312 304
312 309 301 296 291 297 300 293 286 276 281 294 294 300 294 290 289 287 288 287 283 284 292 298 295 289 285 289 292 292 296 299 301 302 301 306 307 314
324 325 314 316 313 306 300 298 294 291 280 297 308 312 305 304 294 292 288 283 277 277 285 295 290 286 278 283 281 285 290 294 300 300 301 301 301 306
337 328 324 326 322 327 331 321 309 300 294 295 300 306 301 303 300 295 293 292 287 281 284 291 290 289 302 298 295 294 292 297 299 297 295 297 296 300
335 330 326 326 327 325 318 311 316 314 307 297 290 293 296 299 288 298 307 301 296 292 289 290 283 284 297 293 299 309 321 302 294 295 288 284 281 282
334 333 327 323 320 319 318 318 309 305 303 300 295 295 297 302 302 298 289 297 292 277 282 285 296 295 287 267 282 295 298 294 287 289 291 288 280 280
338 330 330 323 320 322 316 311 305 308 307 302 298 298 297 295 296 289 287 292 299 264 263 276 258 256 269 276 272 291 292 282 297 297 292 280 283 275
343 339 343 343 336 321 310 308 301 299 297 300 300 295 296 297 296 293 284 271 273 277 264 272 247 262 270 267 279 286 280 288 294 290 283 281 270 271
338 337 334 328 323 320 312 304 294 284 280 285 282 287 297 302 295 307 297 273 278 281 246 265 236 259 266 277 285 279 283 284 284 283 280 286 281 288
320 322 325 322 317 323 325 321 322 318 293 296 307 314 321 325 324 332 329 317 311 316 262 243 256 277 293 288 284 279 297 310 287 280 229 275 304 296
316 332 323 324 323 329 332 332 324 316 313 344 331 331 325 327 348 327 317 304 311 309 11 348 307 335 304 276 305 297 300 314 319 298 291 294 285 265
330 325 314 318 330 332 335 332 325 333 337 327 323 319 321 322 329 322 309 306 320 303 299 326 295 305 265 296 281 274 278 295 295 294 294 291 282 271
328 314 307 330 337 341 340 331 338 343 324 323 323 325 325 319 318 313 311 302 287 279 285 284 271 263 274 285 282 287 281 273 268 271 272 277 282 273
316 317 333 338 342 337 337 343 345 331 323 331 332 325 316 306 309 314 315 310 303 295 287 279 262 269 257 261 270 274 291 279 254 263 270 264 270 261
320 347 344 343 341 339 337 331 327 329 331 326 318 311 308 313 315 308 312 313 310 307 291 277 270 255 264 253 255 266 260 256 267 255 264 287 291 277
16 354 340 337 334 329 332 329 325 323 324 317 315 316 318 321 320 314 307 312 304 301 306 304 283 264 259 264 269 261 265 247 251 269 261 278 274 256
357 342 335 333 327 328 328 327 327 324 321 321 315 309 310 313 311 310 310 307 305 303 300 299 299 306 280 266 235 262 263 279 283 269 246 268 284 260
348 338 330 326 323 323 320 321 322 317 313 306 304 305 306 308 316 313 310 305 307 301 300 302 297 289 300 316 318 19 225 310 352 347 229 246 249 254
339 327 325 321 319 317 317 316 316 317 315 309 313 309 308 307 311 313 311 308 305 306 321 353 5 14 355 325 314 352 28 27 4 327 305 301 288 289
328 324 316 312 312 312 311 310 310 315 323 321 315 313 310 308 310 308 307 319 327 324 333 352 346 351 333 340 15 3 339 292 269 276 278 295 298 304
318 315 314 308 308 308 310 311 314 316 317 318 315 313 310 308 306 310 314 316 322 340 349 336 332 357 31 43 2 332 326 313 324 282 290 268 235 285
313 311 311 307 307 303 304 308 313 313 310 311 322 320 321 325 326 323 335 358 356 352 356 349 356 4 353 336 360 344 336 341 340 344 328 344 308 282